Вернуться в каталог

STARLINK-35731

АктивенСвязьVLEO
NORAD 66228·PAYLOAD·🇺🇸 United States

Запущен Oct 28, 2025 с Vandenberg Space Force Base

Loading…

Ближайшие Пролёты (ближайшие 24 часа)

TLE

СвежийSource: CelesTrak SupGP

Эпоха: Sep 14, 2026, 23:04 UTC

1 66228C 25244Y   26257.96159722  .00036843  00000+0  10889-2 0  2572
2 66228  53.1588  67.2780 0001223  80.8974  39.1718 15.34362893    14

Отслеживайте STARLINK-35731 в реальном времени с AllMySat

Download on the App Store